Wind_Speed
5 2 4 5 3 2 2 6 8 8 9 7 2 2 3 4 4 6 8 7 9 10 13 13 12 11 11 11 11 10 10 11 11 11 11 10 10 10 9 10 11 12 11 10 13 18 23 23 15 10 16 21 19 18 19 18 17 16 16 18 16 13 13 13 12 9 9 12 12 10 9 8 7 6 5 4 3 2 1 1 2 2 2 4 6 6 4
6 7 8 7 7 5 7 10 10 8 9 8 6 6 7 2 5 9 7 7 7 9 13 14 11 9 8 8 9 10 10 11 12 13 11 9 9 9 10 10 10 12 11 10 15 18 19 23 22 19 21 23 21 21 21 19 17 17 17 17 15 14 14 13 12 11 11 11 9 8 8 6 5 4 3 3 2 1 1 1 3 3 2 3 6 6 3
6 9 11 10 7 7 10 14 14 12 13 14 12 10 10 7 4 3 4 6 1 3 3 5 7 8 9 9 10 10 10 10 10 11 10 9 9 10 11 10 8 9 10 10 15 20 20 20 20 22 25 26 24 23 22 19 18 17 16 15 15 15 14 12 12 12 11 9 7 7 6 4 4 3 2 2 0 1 1 1 1 2 2 4 5 4 2
4 7 10 10 6 9 10 12 13 11 11 12 11 10 9 6 5 8 8 5 4 5 4 9 8 9 11 11 10 9 8 8 10 11 11 11 12 12 11 10 9 10 12 12 14 20 24 23 21 23 27 27 24 23 22 20 19 17 16 16 16 15 13 13 14 13 10 8 8 7 6 5 4 3 2 1 2 2 0 1 1 2 2 3 2 1 1
4 6 7 7 5 9 6 5 6 6 10 13 13 14 14 10 5 7 5 1 4 4 5 9 8 8 9 9 8 7 8 8 9 12 13 13 13 13 12 12 13 13 13 16 19 24 28 27 25 27 30 29 25 24 22 20 20 18 17 16 17 15 14 14 14 11 9 9 9 8 6 5 4 3 3 2 2 1 1 2 4 4 3 3 2 2 4
3 6 5 5 6 5 2 2 5 8 13 18 15 13 15 13 8 4 4 4 6 7 7 7 7 6 6 6 5 7 9 10 10 11 12 13 13 12 13 13 13 13 17 21 24 27 27 28 28 29 31 29 26 25 23 21 20 19 16 17 18 16 15 14 12 11 11 11 10 9 7 5 5 4 3 2 2 1 2 5 5 5 5 4 5 5 6
1 4 6 7 3 2 5 2 5 8 13 19 18 14 15 14 12 9 8 8 9 9 8 6 6 5 6 6 5 6 9 10 12 11 10 12 12 12 13 13 13 14 14 13 20 28 25 25 28 28 28 28 26 25 23 21 21 18 16 17 18 17 16 14 12 12 12 12 11 9 7 6 5 4 2 1 1 3 5 6 6 7 6 6 7 7 7
0 2 4 2 3 4 5 6 4 4 5 11 15 14 14 13 11 10 10 9 7 7 8 6 5 5 5 4 3 3 6 7 11 13 12 12 13 14 12 10 11 11 7 9 9 24 24 23 27 28 27 27 26 25 23 21 21 18 15 17 19 18 16 15 14 13 13 12 11 9 7 6 4 2 0 2 4 6 6 6 7 8 9 8 8 8 6
1 2 1 2 2 3 6 6 4 3 3 3 11 9 7 10 9 7 7 8 8 7 7 5 4 5 6 4 3 2 5 6 8 11 12 13 13 9 6 5 7 12 9 7 7 17 19 21 26 28 28 27 25 24 23 21 21 19 15 17 20 18 16 15 14 14 13 12 10 9 7 5 2 2 4 6 6 6 6 7 8 10 10 9 9 8 7
2 4 2 3 3 1 3 6 8 5 1 6 12 11 4 8 9 7 6 6 6 6 5 4 4 5 5 2 5 6 6 7 6 5 6 8 8 8 12 12 12 13 13 11 11 16 18 19 23 26 27 26 24 23 22 21 21 19 16 18 20 19 17 16 15 14 12 11 10 9 7 4 3 6 8 8 6 6 7 8 10 9 8 8 7 7 7
1 5 2 0 1 3 5 7 9 8 3 7 7 9 4 6 9 7 6 5 4 2 2 3 2 2 2 4 6 6 7 7 5 6 5 5 9 12 15 18 18 15 13 12 14 16 17 18 21 25 25 24 23 22 21 21 21 20 18 18 20 19 17 16 14 13 11 10 9 8 6 5 7 9 8 7 7 8 9 8 7 7 6 7 7 7 7
2 4 2 2 2 3 6 6 8 10 5 2 5 6 1 4 6 6 5 5 5 4 3 2 2 3 4 5 6 4 5 3 3 6 7 8 12 14 14 16 18 17 15 16 16 16 17 18 21 23 23 23 22 21 21 20 21 22 20 18 19 19 17 15 13 12 10 9 7 6 6 8 10 8 7 8 9 9 7 5 5 6 6 6 6 6 6
4 5 3 2 2 4 5 5 7 9 5 6 7 3 5 4 3 3 1 1 4 6 5 3 1 3 5 6 5 2 5 4 3 5 8 10 14 16 16 16 18 17 17 18 19 17 17 20 21 22 22 22 21 20 20 20 21 22 20 18 18 19 17 14 12 10 8 7 6 7 9 9 9 7 7 8 7 5 5 5 6 7 5 4 4 6 7
3 4 3 0 2 5 5 4 6 7 5 5 3 4 4 3 1 1 1 2 4 5 5 4 4 6 6 3 2 5 6 4 4 5 8 10 12 15 17 18 18 18 17 17 16 16 18 21 22 22 23 21 19 20 20 20 21 21 19 18 19 19 16 13 11 8 7 9 11 11 11 10 9 9 7 5 4 5 6 6 5 5 5 6 9 11 11
2 3 3 2 2 6 5 2 5 7 4 4 5 2 2 3 3 2 2 4 4 4 5 5 5 6 5 1 6 6 5 5 6 7 9 10 11 13 16 18 20 21 19 18 18 19 21 23 23 23 23 21 19 19 20 20 19 18 18 18 19 17 15 12 10 9 11 14 14 12 12 10 9 7 5 4 6 7 6 5 5 7 9 11 12 12 12
2 3 1 3 5 5 4 3 3 3 3 4 4 4 2 1 2 4 3 3 5 5 4 3 2 4 4 2 6 6 6 6 6 7 9 11 13 16 19 22 24 23 21 20 21 22 22 23 24 24 24 21 19 19 19 20 19 18 18 19 18 16 14 12 12 13 14 14 13 12 12 9 7 6 5 6 7 6 4 7 10 12 12 10 11 13 13
3 4 3 3 2 2 5 6 5 5 5 4 5 6 3 1 2 2 1 3 5 4 3 4 3 5 6 3 2 3 5 7 8 8 10 12 15 18 19 22 25 25 24 23 22 22 23 24 24 25 25 22 19 19 19 20 20 20 19 18 17 15 14 15 16 16 15 13 12 12 11 8 6 6 6 6 7 6 6 9 10 11 11 11 12 13 13
4 4 3 3 4 6 8 8 6 6 6 5 4 4 3 0 2 2 1 2 4 4 4 5 4 4 5 6 5 3 1 4 7 8 8 11 17 21 21 22 24 23 24 25 23 21 22 24 25 25 25 23 21 20 21 21 21 21 19 18 17 16 16 18 18 16 14 14 13 11 9 7 7 7 6 7 8 8 8 8 9 10 11 12 12 12 11
4 3 4 5 7 8 7 8 8 8 7 6 4 4 1 2 2 2 1 1 1 3 4 5 4 4 4 4 5 5 5 4 4 6 5 5 9 12 15 21 27 27 24 23 24 22 21 23 25 24 24 24 23 22 23 22 20 19 18 18 18 18 19 19 17 16 15 14 12 10 8 9 9 9 8 8 9 8 8 10 11 11 11 10 10 10 10
3 3 2 1 5 7 7 7 6 7 7 7 6 5 3 3 3 3 3 1 1 2 3 4 5 5 3 3 3 2 5 5 5 7 8 10 12 12 8 5 13 22 25 23 22 23 21 21 24 25 24 25 25 24 23 21 19 18 18 19 20 20 19 18 17 17 16 14 13 12 11 12 12 11 10 10 11 11 10 10 11 12 10 8 7 7 8
3 0 2 2 4 4 7 7 5 5 5 6 7 6 6 5 5 5 5 2 0 0 1 2 4 5 4 3 4 2 2 4 4 6 10 14 18 17 12 5 3 5 18 25 23 22 23 23 24 26 26 25 26 25 22 19 18 18 19 21 20 18 17 17 17 16 15 15 16 16 15 14 12 10 10 11 12 11 10 8 9 10 9 7 5 6 6
1 2 3 1 3 1 3 4 5 6 5 5 7 7 7 7 6 5 6 5 3 1 1 3 3 4 5 4 4 4 2 2 6 8 12 17 20 19 19 15 3 7 6 23 27 23 23 25 25 26 26 25 24 23 20 18 18 19 20 20 17 15 15 17 17 16 17 18 18 16 14 14 12 11 10 8 8 9 9 7 7 7 7 7 7 7 7
4 5 4 2 3 1 3 4 4 5 5 5 6 5 6 7 7 6 6 8 7 5 3 3 4 4 6 5 3 4 4 3 4 10 14 17 20 19 18 22 17 3 3 14 26 25 23 25 26 24 25 25 23 20 19 18 19 20 19 17 15 14 15 17 19 19 20 19 16 14 14 13 12 11 9 8 7 6 5 5 5 5 5 7 9 9 7
3 4 4 4 4 2 4 5 5 4 3 5 5 5 6 7 7 7 7 8 8 8 6 3 4 6 7 7 5 3 3 5 4 6 13 17 20 21 19 22 24 14 3 7 21 26 24 23 24 23 23 24 23 20 19 20 20 19 17 16 17 19 20 21 22 22 21 19 17 15 13 11 9 8 9 9 8 6 5 4 3 3 4 6 9 8 8
3 4 4 4 3 2 4 4 4 3 4 4 4 4 5 6 8 9 9 8 9 10 8 5 4 8 10 10 9 6 4 4 4 4 9 15 19 21 22 22 25 22 10 5 12 23 24 22 22 22 22 22 22 21 20 19 19 18 18 19 23 24 24 23 23 22 21 19 16 13 10 9 8 7 8 8 7 6 6 4 3 2 4 7 8 8 10
5 4 2 3 2 2 3 4 4 5 7 7 6 5 6 7 9 11 11 11 13 14 11 6 2 5 8 9 7 4 4 1 2 5 6 10 14 19 24 24 25 25 17 8 9 18 23 23 22 23 22 21 20 20 19 18 19 20 21 23 25 25 24 23 22 20 19 17 14 11 10 9 7 5 5 5 5 6 5 4 4 4 6 7 8 9 11
5 5 4 4 4 5 4 3 3 5 7 8 7 6 8 10 11 12 13 14 14 12 8 6 4 6 5 3 1 1 3 3 2 2 3 5 10 19 26 26 24 24 22 17 14 16 21 24 24 23 22 20 19 19 18 19 21 22 23 23 23 22 20 20 19 19 18 16 13 12 10 8 6 5 6 7 8 7 6 6 8 9 7 8 9 10 11
4 4 5 3 2 4 4 4 5 5 7 8 9 9 10 10 9 9 10 9 8 7 7 7 6 7 7 6 5 6 5 4 4 3 1 4 12 23 29 28 27 26 26 26 23 20 20 23 23 22 21 20 19 19 20 21 22 22 22 21 21 20 19 18 17 17 16 15 13 12 10 7 7 7 7 8 8 8 8 10 12 10 8 8 9 9 9
4 4 4 4 4 4 3 4 5 6 7 9 11 11 10 7 6 6 6 4 4 4 4 4 5 5 7 9 10 9 8 7 5 5 8 11 16 23 28 30 30 29 28 28 28 25 22 22 22 22 21 19 19 19 19 19 19 20 20 20 19 18 17 16 15 15 15 15 14 12 8 6 7 8 7 7 8 8 10 12 12 11 9 9 11 11 9
4 4 4 2 1 2 3 5 5 6 6 7 8 9 7 5 5 5 4 3 3 4 3 0 3 4 4 8 11 12 13 13 11 10 13 17 19 21 26 29 27 24 23 25 27 27 25 23 22 22 21 19 18 17 17 17 18 19 19 18 18 18 18 17 16 17 17 15 12 8 6 6 9 9 9 9 8 9 11 13 13 11 10 10 12 12 10
3 3 4 3 4 4 3 4 5 5 6 5 5 7 6 4 4 3 2 2 3 5 5 4 3 5 4 4 9 13 17 20 19 15 12 13 13 16 23 27 24 20 19 23 27 28 26 23 22 21 20 18 17 17 18 18 19 18 18 18 19 20 20 19 18 17 15 12 9 7 7 8 10 10 9 9 8 8 11 14 13 11 10 11 12 11 9
4 4 5 4 3 3 3 4 4 5 6 6 5 6 6 5 5 4 4 4 5 6 6 5 4 6 8 8 10 13 16 20 22 22 19 15 13 14 18 21 20 20 22 25 27 28 26 24 22 20 18 17 18 19 20 20 20 21 21 20 20 19 18 16 16 14 12 10 10 11 11 11 10 8 8 9 8 8 11 14 13 11 10 11 11 9 9
4 1 3 2 2 4 5 5 5 5 6 6 6 6 7 7 5 5 5 6 6 7 7 7 8 9 12 13 13 15 17 16 17 20 22 21 19 17 16 17 19 22 24 26 28 27 25 23 21 18 17 18 19 20 20 19 20 21 20 18 18 17 14 13 13 12 11 11 13 13 12 12 9 7 8 10 9 9 12 14 13 10 9 10 10 9 11
6 4 5 5 4 4 5 5 5 5 5 7 7 6 7 8 8 7 8 8 7 7 9 10 9 10 15 18 17 17 17 14 11 13 17 21 20 18 17 18 20 22 23 25 27 26 23 21 20 19 19 19 19 19 19 19 20 20 19 17 17 15 13 13 14 14 14 14 13 10 10 10 9 8 10 11 9 9 12 14 13 10 8 9 10 11 12
4 5 5 5 5 6 6 6 6 6 6 7 7 6 8 10 10 9 10 10 10 9 11 12 11 12 15 17 17 17 17 14 13 15 18 22 22 21 19 19 20 21 22 23 25 25 22 20 21 22 21 20 18 18 18 19 20 20 19 18 17 16 14 15 17 16 15 14 12 11 11 11 10 10 12 11 9 10 13 15 13 10 10 11 11 11 12
3 3 4 5 6 7 7 7 7 7 6 6 7 7 9 11 11 11 13 14 14 12 13 14 14 14 15 16 17 18 17 16 16 18 20 24 26 26 23 21 21 22 21 21 23 23 21 21 23 23 22 22 21 19 19 19 19 18 19 19 18 17 16 16 17 16 15 14 14 13 12 11 11 12 12 10 9 11 15 16 14 12 12 11 11 10 10
3 3 5 5 6 7 9 9 9 10 9 9 10 9 10 12 15 16 17 17 16 15 15 17 17 16 16 16 17 17 17 18 20 21 24 29 32 31 27 25 25 24 21 20 22 23 21 23 24 23 24 25 24 22 21 20 18 18 19 19 18 17 17 17 18 18 16 15 15 14 13 12 12 13 12 11 10 12 16 16 14 13 12 10 9 9 8
4 5 6 6 7 8 9 11 12 12 11 11 11 12 12 14 17 19 19 19 18 17 17 19 20 19 15 13 14 15 18 21 24 26 28 32 35 34 29 27 27 25 23 23 25 24 23 24 25 23 25 28 28 25 23 21 18 17 18 17 17 17 18 19 20 19 16 13 12 13 14 13 13 13 13 13 13 14 15 15 14 13 11 9 9 9 9
5 6 6 6 6 7 9 12 13 13 12 11 11 13 14 15 16 18 19 19 20 19 19 20 19 15 12 12 13 15 20 25 29 30 31 32 33 32 29 27 28 28 27 27 26 25 25 27 25 23 24 28 29 28 25 21 18 17 17 17 18 19 19 19 19 17 13 10 10 12 14 14 13 13 15 15 14 15 16 16 15 13 12 10 10 11 12
4 5 7 7 6 7 8 10 12 14 15 15 14 15 14 15 16 17 18 19 21 20 20 20 17 13 14 17 16 16 22 28 31 31 30 29 28 26 23 22 24 26 27 28 27 27 29 29 25 22 24 28 29 28 25 22 20 18 16 16 20 21 19 17 17 16 13 11 11 13 15 15 15 15 17 16 15 16 16 15 15 14 12 11 11 11 12
5 6 7 7 7 7 8 9 12 14 16 17 17 17 15 14 14 15 16 17 19 19 20 20 17 14 16 19 19 20 25 29 31 31 31 28 25 20 16 17 24 28 30 29 29 30 31 29 25 24 27 29 30 27 24 22 22 19 14 14 19 21 20 18 17 16 14 13 13 15 17 18 18 18 19 17 16 16 16 15 15 14 12 11 10 11 13
6 7 7 7 7 9 10 11 11 13 15 17 18 18 16 14 13 14 16 17 16 16 19 20 17 14 14 15 16 20 24 25 26 28 30 31 29 24 18 19 27 33 32 31 32 32 30 27 26 28 30 30 28 24 21 21 22 18 13 14 20 23 22 20 18 16 15 14 13 14 16 19 21 21 20 18 17 16 16 16 15 14 12 11 11 12 13
7 6 6 7 7 9 11 11 11 11 14 17 18 18 17 15 14 14 15 16 16 16 17 17 14 14 16 17 18 19 20 21 21 22 23 25 29 30 28 28 31 34 33 33 34 32 29 28 29 31 31 28 24 21 21 21 19 14 12 17 24 25 22 19 16 15 15 15 14 14 16 20 21 21 19 18 17 17 17 16 15 14 13 12 11 12 13
7 6 6 6 7 9 10 11 10 11 12 15 17 16 14 13 13 13 13 13 14 16 17 17 17 19 21 21 20 20 21 23 24 23 19 14 15 21 28 32 34 34 33 34 34 31 28 29 31 30 27 24 22 22 22 20 14 11 14 22 25 24 20 18 17 15 15 15 15 16 19 21 21 19 18 18 18 17 17 16 15 14 13 12 12 12 12
8 6 5 6 7 8 9 10 10 11 13 16 17 15 12 10 10 11 10 10 11 14 16 18 20 21 21 22 24 25 28 31 33 30 23 15 11 15 25 32 35 34 34 35 34 31 28 29 29 26 23 23 23 23 22 18 11 11 17 24 24 21 19 19 18 16 14 14 15 18 20 20 19 18 17 17 17 17 16 15 14 13 12 12 12 12 11
10 9 8 8 8 8 9 9 11 13 14 15 14 12 11 11 9 8 9 10 12 13 12 14 18 21 22 23 24 22 22 25 28 29 28 25 22 24 29 34 35 36 36 36 34 31 28 27 26 24 22 22 23 22 21 16 11 13 20 24 22 19 18 18 17 16 15 15 16 19 19 19 18 17 17 16 16 16 15 16 15 14 12 11 11 10 9
12 10 10 9 10 10 9 9 9 11 11 9 8 9 10 9 6 7 11 12 13 13 10 11 16 19 21 22 22 23 23 22 19 19 22 25 27 29 33 36 37 37 37 36 34 31 29 27 26 24 21 21 22 22 20 15 12 16 22 23 20 18 18 18 17 17 17 17 17 18 17 17 17 17 16 15 15 15 15 15 15 14 13 12 12 10 9
12 11 11 12 12 11 9 7 5 7 8 7 7 9 9 6 2 7 11 9 8 7 7 9 10 9 9 9 11 16 22 22 18 16 20 25 27 30 34 37 37 37 36 35 33 32 30 28 26 23 20 20 22 21 17 13 14 19 23 23 20 19 19 18 18 18 18 17 17 17 17 17 16 15 15 15 15 15 15 16 15 14 14 13 12 10 9
12 10 11 13 13 11 9 6 4 5 5 7 9 10 9 5 1 5 8 6 1 3 8 12 12 13 14 13 10 12 18 19 17 18 23 27 29 31 34 36 36 37 36 35 33 31 29 28 26 23 20 21 22 18 13 13 18 23 25 24 21 19 18 17 17 17 18 17 16 15 16 16 16 15 15 15 16 15 16 17 17 16 14 13 11 10 9
10 6 8 11 12 11 10 9 7 5 6 7 7 8 9 8 4 2 4 4 5 7 11 14 15 18 19 19 18 21 23 19 16 18 23 27 29 32 35 35 36 36 35 34 32 30 27 26 25 22 21 23 22 16 12 16 22 25 25 23 21 19 17 16 16 16 17 17 16 15 15 16 16 16 15 15 15 17 17 17 16 16 15 14 13 12 11
9 5 8 12 12 11 11 10 7 6 8 7 5 5 7 10 9 6 3 5 7 7 8 11 14 16 17 18 21 24 23 19 19 23 27 29 31 33 34 35 36 36 34 31 30 28 27 26 25 23 23 24 21 15 12 17 24 26 24 22 20 19 18 17 16 16 17 16 15 15 16 17 17 17 15 13 14 17 18 17 15 16 16 15 14 13 12
7 6 10 12 11 11 12 11 9 10 13 11 5 3 2 6 9 8 6 6 6 5 6 8 11 14 18 20 20 17 16 18 23 27 30 31 32 33 33 33 34 34 32 29 27 27 27 27 25 24 24 25 21 15 13 17 24 25 23 21 20 19 19 17 17 17 17 16 14 15 16 18 18 16 13 11 14 17 18 17 16 17 17 15 14 14 14
Wind_Direction
289 253 282 316 2 277 301 345 331 320 310 297 257 256 256 160 164 233 232 181 155 181 197 191 182 171 167 164 150 145 145 140 140 143 143 143 141 136 126 118 125 134 137 141 139 137 142 150 164 176 163 161 165 167 166 165 167 170 169 171 174 179 185 187 184 177 162 155 153 153 155 151 145 141 135 131 128 139 166 177 190 190 145 144 151 142 126
331 352 356 5 25 20 22 16 357 358 7 13 39 16 349 347 220 219 191 160 169 193 199 192 175 157 151 131 115 124 134 140 148 147 144 144 137 129 128 134 148 152 151 150 145 144 152 158 162 167 164 162 166 167 166 167 170 170 170 174 179 184 187 188 185 176 166 161 161 164 165 159 153 151 145 142 141 168 207 210 209 207 191 178 171 164 162
338 356 5 0 22 46 38 24 17 33 46 42 37 20 2 360 320 261 135 117 124 269 206 146 114 110 112 110 121 136 140 146 148 138 133 135 135 144 152 153 161 159 151 158 157 152 159 166 165 164 162 163 167 168 167 171 173 171 176 183 185 188 193 191 183 176 175 180 184 180 177 176 175 179 176 165 23 329 288 250 215 207 199 186 183 191 232
328 351 3 346 9 54 40 24 22 35 54 51 40 29 14 2 10 29 49 59 317 312 74 94 101 119 126 131 138 135 129 140 145 140 142 145 151 163 163 157 169 171 165 178 173 156 159 168 169 165 162 162 166 168 170 175 176 177 184 188 190 195 196 189 182 181 185 194 199 193 188 193 201 208 209 230 326 338 352 61 114 125 128 162 189 259 249
315 331 353 339 23 49 22 357 25 54 73 64 50 41 29 11 24 59 64 24 290 313 85 103 113 125 131 138 140 131 132 149 159 157 154 154 163 171 169 172 180 180 183 191 176 159 161 168 169 167 164 163 167 170 173 177 178 182 190 192 195 196 191 185 183 185 191 197 201 202 201 207 215 224 244 281 333 356 60 94 112 104 74 65 69 83 152
297 311 354 20 46 58 279 294 55 80 83 73 59 43 34 24 29 78 120 100 72 51 55 82 101 115 125 135 141 144 150 160 168 169 161 160 172 180 179 185 188 185 196 195 169 158 165 166 165 168 167 166 170 171 173 178 180 186 192 194 195 192 186 185 185 187 194 197 200 204 209 220 232 250 279 308 354 45 102 109 97 62 45 77 105 114 134
267 321 29 45 47 227 253 322 76 97 89 81 70 45 29 26 29 42 48 53 72 85 80 81 95 110 120 125 132 151 165 169 163 165 171 170 178 188 188 197 198 193 213 210 160 154 165 165 162 165 166 166 168 170 174 179 182 189 195 194 192 189 188 191 191 191 196 198 199 205 212 226 247 272 298 346 67 111 116 100 65 48 64 105 119 118 121
27 20 52 85 229 255 321 3 69 106 67 74 73 46 16 10 19 32 35 25 36 73 81 85 97 104 99 77 60 147 184 187 164 162 176 183 188 194 192 201 197 183 236 283 164 155 162 161 159 162 163 164 166 169 175 180 183 189 196 193 189 188 192 197 198 199 201 201 202 208 216 224 243 275 188 131 130 127 110 77 64 81 96 102 102 101 99
105 91 106 261 287 328 352 348 326 313 323 88 100 78 5 354 13 30 40 24 11 26 48 64 75 79 78 50 330 241 203 212 189 173 181 189 191 182 144 146 179 176 197 253 190 160 157 155 157 160 162 163 165 169 175 181 185 191 195 192 189 190 195 200 201 202 202 204 206 209 214 221 215 145 137 134 128 112 89 81 90 98 98 92 85 75 65
86 91 52 349 10 328 284 287 295 308 240 149 116 94 22 338 355 19 47 40 12 4 5 6 17 44 85 143 255 237 205 212 205 177 182 185 168 136 125 144 175 186 187 192 178 164 156 152 156 159 162 164 166 170 176 182 186 193 198 195 191 193 197 199 201 204 206 210 212 207 206 207 166 139 132 124 111 97 97 104 100 90 81 80 71 55 50
67 102 111 241 176 230 259 277 300 315 243 184 125 76 30 321 335 357 25 33 23 359 301 302 352 43 150 228 256 231 199 206 193 163 163 145 139 149 159 168 178 184 179 173 170 164 156 153 156 159 163 166 168 172 179 184 189 197 202 199 194 194 196 198 202 207 209 214 216 210 200 170 144 136 127 115 110 108 109 105 87 67 61 71 67 53 47
164 134 149 230 201 235 265 277 300 309 292 172 87 67 344 284 315 337 4 6 349 326 310 340 70 139 192 243 268 231 174 182 177 168 168 148 146 163 176 177 178 178 173 169 168 164 158 157 159 160 164 167 171 177 182 186 193 202 205 202 197 195 194 196 201 205 209 216 219 207 180 151 138 133 123 121 122 117 106 88 67 62 72 80 69 46 38
176 162 175 246 240 251 268 287 308 315 339 62 80 137 210 229 278 305 352 335 303 301 310 332 324 221 234 254 263 183 135 141 158 162 164 157 158 169 175 173 172 173 173 173 170 165 162 161 162 164 166 168 172 180 185 191 199 205 208 205 197 193 192 192 196 202 205 204 189 165 155 147 139 134 129 127 122 107 91 86 78 72 69 64 56 55 55
177 168 158 175 280 269 267 291 327 349 40 88 138 202 195 174 199 286 235 224 260 283 282 270 259 267 279 274 173 140 134 145 146 143 152 154 158 167 171 170 170 171 173 175 170 164 165 166 167 169 170 171 176 182 188 196 202 206 208 203 191 187 187 185 188 192 183 169 158 147 146 147 142 135 131 121 103 97 97 95 81 62 60 72 77 75 66
121 77 69 88 227 270 286 325 0 21 73 169 195 178 157 169 169 169 198 223 229 234 245 249 259 282 298 122 136 141 146 153 151 154 161 158 157 167 172 174 176 174 171 172 171 168 168 169 170 172 173 175 179 184 191 199 204 203 199 191 182 178 178 177 178 178 167 159 154 150 151 152 147 139 126 104 106 107 96 87 90 88 87 89 81 69 57
104 98 120 182 205 262 323 61 86 74 119 172 155 115 95 265 193 172 186 244 243 227 244 274 299 326 328 163 158 160 162 162 159 161 166 164 166 173 177 177 177 173 169 169 168 167 168 170 171 175 178 178 179 185 192 197 195 188 180 175 172 171 170 169 168 164 162 161 162 164 163 159 151 145 130 121 129 130 105 100 104 96 88 82 71 59 51
114 140 190 222 219 331 28 68 95 91 79 86 109 114 102 358 281 203 132 326 300 295 331 343 6 9 347 317 221 186 177 175 176 179 178 174 171 170 169 170 171 170 166 164 162 163 168 171 173 178 181 181 179 180 185 186 181 174 170 168 168 168 168 166 163 161 162 165 167 167 166 163 155 150 142 137 141 141 122 110 102 91 82 76 67 58 47
93 85 38 31 64 56 49 57 62 62 59 52 72 100 101 10 302 309 26 334 311 323 354 357 0 358 343 338 345 356 98 162 168 173 176 171 167 165 162 162 166 167 163 158 157 160 165 169 174 179 182 183 180 175 174 175 173 170 169 169 169 170 169 165 163 164 166 166 165 166 168 168 157 144 137 132 130 129 123 109 93 83 85 81 69 56 43
94 73 359 23 69 68 54 49 40 33 30 22 35 60 38 270 285 328 358 87 339 335 351 348 325 311 328 345 356 25 52 73 102 107 100 116 140 149 155 160 163 162 158 156 157 157 161 169 173 177 181 182 179 173 168 168 170 171 171 171 171 169 168 166 168 172 171 167 166 168 168 162 146 127 117 113 110 111 115 108 96 89 88 86 74 55 40
96 155 254 17 85 73 57 58 44 21 9 356 3 21 355 311 308 329 346 62 81 6 356 337 307 300 315 323 322 45 84 81 84 92 82 71 72 74 75 122 160 161 156 154 155 153 156 165 170 171 173 173 171 169 168 169 173 174 172 172 171 169 170 173 176 178 176 169 160 154 150 147 135 117 107 102 96 99 105 103 98 97 97 94 80 51 36
50 53 323 18 96 66 37 41 32 7 359 346 344 356 357 342 325 325 338 342 188 102 332 285 288 298 299 299 306 311 113 107 103 103 94 88 92 102 109 87 335 198 158 148 145 146 150 157 163 163 163 165 165 165 168 173 176 174 171 170 171 175 180 183 181 179 176 168 158 149 143 140 130 118 113 108 101 105 115 109 99 101 102 96 75 44 35
55 279 304 15 130 141 340 3 1 341 335 343 345 349 356 349 327 313 325 326 317 302 230 213 231 286 293 308 332 319 288 142 135 128 113 103 105 117 133 133 93 313 175 144 139 140 145 150 155 156 156 160 165 166 170 175 174 169 168 170 173 181 189 187 183 180 172 163 158 152 146 142 137 133 132 129 120 121 128 128 119 111 100 79 53 35 38
179 210 223 168 120 157 275 305 324 317 324 351 357 357 3 357 340 330 335 333 328 322 291 216 190 234 270 286 325 326 302 272 174 141 131 124 121 125 134 132 121 79 256 147 137 137 142 147 150 153 156 160 164 167 170 174 173 170 172 173 171 173 176 175 173 170 164 157 156 156 153 152 150 148 152 159 155 147 145 144 140 127 98 62 40 36 51
164 191 186 152 122 177 257 284 302 311 347 8 5 2 360 352 344 342 340 331 321 316 306 260 204 217 246 264 273 265 257 268 254 154 136 131 129 130 131 127 124 127 184 163 139 138 143 147 149 153 157 161 165 170 173 177 178 177 177 175 166 161 160 158 156 156 153 152 154 157 160 164 167 170 177 180 178 179 184 182 166 136 96 58 43 50 61
145 192 187 150 138 228 262 284 304 334 4 5 1 358 345 336 337 339 337 330 319 310 302 287 238 220 232 246 248 244 243 250 251 205 147 132 130 131 129 127 128 133 148 187 150 143 144 147 149 152 156 161 167 173 178 181 180 177 175 171 162 155 152 151 151 152 152 152 153 155 157 162 172 189 203 207 203 198 201 213 216 148 96 60 52 64 60
138 162 145 70 38 317 333 357 346 339 345 343 337 335 333 338 343 338 329 321 315 307 301 305 279 210 230 245 244 260 309 341 176 191 168 144 138 135 132 133 135 136 141 160 158 146 144 146 146 148 150 156 165 171 173 175 173 170 168 164 157 152 149 149 149 150 151 149 147 145 146 151 161 178 192 197 191 185 194 210 193 139 96 67 67 71 56
119 123 91 48 359 333 346 355 307 304 324 334 331 326 328 334 337 331 321 319 324 332 347 13 69 127 168 223 232 43 4 12 82 143 178 169 146 135 131 132 134 136 142 150 153 149 145 144 144 145 145 150 157 162 163 164 163 160 157 155 152 149 149 149 148 149 151 151 145 139 140 143 143 142 142 142 140 139 146 156 147 127 94 74 77 69 48
97 102 109 124 214 258 271 278 287 302 319 322 315 309 314 322 323 318 314 316 331 2 33 54 78 114 135 135 111 102 96 69 52 64 129 162 144 136 135 137 140 146 151 152 151 152 149 146 146 145 144 148 153 155 156 158 157 154 153 153 151 149 149 151 150 149 152 153 148 143 143 141 135 134 136 138 135 132 138 144 136 117 91 80 80 67 48
117 111 111 144 188 210 269 306 317 323 319 315 312 308 309 315 315 309 307 302 307 333 16 63 82 99 123 129 128 126 119 105 98 125 149 156 151 143 140 143 148 153 155 152 151 153 154 153 149 146 146 150 154 155 158 160 158 156 155 154 151 150 150 150 148 147 148 150 149 148 149 145 142 140 136 133 130 129 139 142 131 109 89 77 72 65 58
165 137 109 85 26 38 4 325 314 311 307 311 316 311 305 309 312 308 307 300 292 298 307 69 126 124 127 132 135 136 131 122 118 128 147 156 157 150 145 145 147 151 153 153 152 153 155 156 153 149 149 152 156 160 164 163 159 157 156 154 150 145 142 141 141 143 145 148 151 156 157 148 145 141 133 126 119 118 136 144 132 109 90 76 68 64 60
148 96 73 40 21 22 345 295 289 295 295 298 306 306 304 307 298 276 250 253 272 279 282 267 185 158 160 144 131 129 128 126 126 128 138 147 152 152 151 150 150 154 158 157 153 152 155 158 157 153 152 156 163 167 167 163 159 156 154 151 147 140 138 139 141 144 149 154 161 168 162 146 139 134 131 128 117 114 134 143 133 113 95 81 72 67 59
85 38 19 11 0 333 297 277 275 282 282 281 283 283 281 275 265 251 230 224 243 262 272 268 230 192 180 161 141 138 139 137 137 141 144 143 144 150 155 156 158 160 161 158 154 155 158 159 156 155 158 164 169 170 166 163 161 157 153 152 150 147 147 147 148 152 158 157 152 151 147 141 136 134 136 134 120 114 133 141 134 120 103 85 75 71 62
107 44 333 318 301 295 289 276 268 266 268 271 269 265 265 260 240 220 220 227 236 245 248 250 245 214 183 167 158 154 149 141 141 149 151 147 146 151 158 161 164 164 162 160 159 160 163 161 156 157 162 167 169 170 169 168 167 164 162 160 158 157 158 159 161 168 168 155 145 143 143 143 142 137 137 134 120 115 131 139 135 127 107 83 76 80 70
153 188 218 215 222 252 268 270 271 270 270 272 265 257 263 263 242 216 216 224 229 234 234 236 236 211 183 172 167 162 154 146 151 162 155 144 143 152 157 155 156 158 159 160 161 162 164 162 156 156 163 170 174 179 182 183 181 177 173 169 167 166 168 169 168 167 164 158 153 149 151 154 150 138 135 133 119 114 129 138 138 130 108 87 86 87 71
191 212 228 229 230 237 245 254 263 266 270 273 269 263 264 259 241 217 214 224 233 237 230 218 207 197 187 177 169 168 170 168 166 164 153 140 139 148 149 142 144 150 154 159 162 163 162 160 155 157 167 176 181 185 188 189 190 187 181 176 174 171 168 168 165 160 158 159 154 146 148 151 145 137 136 130 114 113 130 139 136 122 104 97 98 88 68
232 223 238 252 256 257 259 262 261 262 266 268 265 263 262 256 243 228 228 237 244 238 221 204 195 195 195 187 177 177 178 170 157 149 141 135 138 145 146 143 147 152 153 157 162 164 162 159 158 164 176 184 185 184 182 180 181 180 177 176 175 171 167 169 167 161 158 156 149 144 145 146 141 139 136 126 111 118 129 132 126 113 102 101 100 90 73
242 227 240 259 275 281 283 286 285 283 280 274 269 265 260 256 251 244 242 247 249 238 218 204 200 202 203 195 182 173 165 156 148 144 139 138 142 148 151 152 156 156 154 157 164 166 165 164 166 177 189 191 189 187 184 179 177 176 174 175 176 176 176 176 172 167 163 159 154 152 150 147 147 146 137 123 118 126 130 129 123 114 105 96 93 91 83
263 270 273 282 294 298 300 304 305 298 288 281 281 280 274 266 258 250 247 250 252 242 224 210 207 209 205 192 176 162 152 148 147 147 146 147 149 153 158 163 164 160 159 165 169 168 168 171 177 189 197 196 194 194 190 186 186 186 183 181 179 176 174 174 173 172 169 164 164 166 160 152 152 152 140 127 125 130 133 131 124 115 105 92 86 90 91
290 297 300 304 312 313 312 313 312 305 297 291 288 285 284 278 265 252 247 249 251 243 227 217 216 214 199 184 177 165 155 153 155 157 158 157 156 157 163 171 172 168 169 172 172 171 175 181 187 195 200 200 201 198 192 191 194 195 194 192 186 177 172 170 169 168 164 157 159 167 168 166 164 157 143 133 131 133 135 132 122 112 105 97 92 92 94
290 298 306 313 319 319 313 310 307 303 300 297 289 283 281 277 264 250 243 243 244 238 225 218 218 211 194 187 185 173 163 163 165 164 162 160 157 154 156 166 172 172 173 175 175 177 182 187 193 201 203 203 201 195 191 193 194 190 188 191 187 180 175 170 163 160 160 157 151 152 158 165 167 159 147 138 134 135 134 130 123 116 109 102 96 94 95
285 296 306 311 313 310 304 301 301 302 302 299 293 288 286 278 262 250 246 244 243 236 225 218 217 214 203 194 185 174 170 172 172 168 161 159 157 152 149 163 174 176 175 178 181 182 185 191 199 204 201 196 193 190 190 194 193 189 191 198 194 187 183 176 165 160 164 165 155 150 153 158 158 154 149 142 137 135 134 131 126 119 112 105 100 98 97
289 303 312 316 315 311 307 303 303 302 300 295 292 293 296 290 271 257 254 256 254 242 229 221 218 218 213 200 183 174 174 177 177 173 168 166 165 160 156 166 175 176 177 180 183 184 186 193 198 196 190 187 187 188 189 192 194 196 201 202 193 186 182 176 168 165 168 169 162 156 156 155 152 149 147 143 139 138 137 133 127 120 115 112 107 102 97
302 314 315 313 311 309 306 305 305 301 294 291 293 298 299 295 284 270 262 259 255 244 230 218 207 204 204 196 181 173 175 177 179 183 183 178 172 166 164 167 173 176 179 181 182 183 186 189 188 185 184 185 187 187 188 190 194 196 196 190 185 182 180 177 174 171 172 174 176 172 162 155 151 148 145 143 142 142 140 135 128 123 121 119 114 106 101
317 320 310 304 306 307 304 301 301 296 289 290 298 304 300 289 279 271 264 258 250 240 226 210 197 196 198 192 181 174 173 173 177 184 188 180 166 165 167 168 170 174 180 182 182 182 183 184 183 183 185 187 187 188 189 191 191 184 179 180 180 178 175 173 170 165 162 164 171 171 163 156 152 149 147 146 147 146 143 139 133 129 126 124 119 114 109
315 318 315 307 302 299 296 296 297 295 293 296 300 303 302 294 284 278 275 269 253 239 225 211 200 196 195 192 186 182 178 176 177 179 178 167 157 167 171 169 170 175 181 183 183 182 181 181 182 185 186 186 187 189 190 191 185 169 167 169 170 169 166 163 160 156 151 149 154 159 158 155 153 152 150 149 149 147 145 143 140 137 135 130 124 119 113
318 325 330 323 309 303 306 309 306 300 298 299 303 310 324 335 329 310 295 279 255 238 226 210 202 202 201 196 188 179 173 175 178 179 178 174 171 172 172 171 173 178 181 182 183 182 180 180 183 185 185 185 187 189 188 187 181 169 167 167 166 165 166 164 159 156 154 151 151 153 155 155 155 154 153 151 149 147 147 145 141 139 141 138 130 123 114
316 320 326 324 316 317 325 326 313 299 295 296 305 320 337 349 335 287 279 272 254 238 220 198 196 204 206 197 183 170 162 162 168 176 178 176 172 170 173 175 177 178 180 181 182 182 181 181 184 185 184 184 186 187 188 189 181 171 170 170 166 163 164 165 162 160 158 156 154 155 155 155 155 154 153 154 154 151 150 150 147 146 147 144 136 129 123
314 311 318 321 320 325 335 332 298 280 284 302 324 330 334 344 289 247 254 262 260 240 197 164 164 178 179 171 170 170 166 161 158 166 175 176 172 171 175 178 177 176 177 179 181 182 183 184 185 184 183 182 183 184 187 190 181 173 172 171 166 162 162 163 162 162 161 158 156 156 157 157 156 156 156 159 159 155 153 155 156 154 152 147 141 136 133
326 316 321 324 327 339 350 340 296 276 300 332 347 343 336 340 292 220 226 224 194 121 130 138 155 173 172 165 171 179 173 166 165 171 178 178 175 174 177 178 176 174 174 177 179 181 184 184 184 184 184 183 183 183 184 180 175 172 171 171 169 166 166 164 162 163 163 161 159 160 162 162 162 163 165 167 167 164 160 161 162 161 159 155 151 147 146
0 347 330 326 331 345 347 327 308 325 349 356 2 355 339 329 323 267 217 191 154 137 136 143 158 172 174 174 175 172 168 171 182 185 181 179 178 177 176 176 173 172 173 175 177 179 181 182 182 182 182 182 181 180 174 171 171 171 172 171 170 167 165 162 160 163 165 165 163 165 168 168 169 169 169 170 171 169 165 164 167 167 165 160 155 153 154
27 4 335 329 332 341 337 316 308 346 10 15 32 23 343 320 311 304 253 194 184 172 152 143 148 156 162 168 170 167 167 177 190 188 181 179 180 178 175 173 171 170 172 175 177 178 180 181 182 181 179 179 177 170 163 169 174 174 171 170 168 166 163 162 162 164 167 169 170 172 174 175 175 173 171 170 173 172 168 167 170 172 168 161 156 157 158
22 347 336 336 337 341 339 331 336 3 12 14 30 63 5 307 302 298 270 219 199 190 167 150 145 150 159 167 172 175 180 188 186 179 174 175 176 175 172 171 170 170 172 175 177 179 182 184 185 183 181 179 175 165 157 167 175 176 172 170 170 168 167 167 167 167 171 176 179 180 180 179 178 176 173 171 173 173 170 169 171 173 170 164 160 161 160
Height
770 768 766 763 765 767 765 765 765 761 757 758 763 767 766 767 777 779 766 763 774 773 763 762 762 761 763 764 765 767 770 773 774 776 779 780 781 782 784 786 785 785 785 784 785 786 786 789 796 801 803 803 803 804 805 805 806 807 808 809 811 812 814 815 816 817 817 817 817 817 817 816 817 817 817 817 817 817 817 817 817 817 817 817 817 817 818
770 767 766 764 765 768 768 768 769 768 767 766 767 768 766 764 765 761 758 764 767 761 755 754 753 755 759 761 765 769 773 776 775 776 779 782 784 785 786 787 785 781 780 781 782 784 786 786 786 792 798 800 801 803 804 805 806 807 808 809 810 812 813 815 816 817 818 818 817 817 817 817 817 817 817 817 817 817 817 817 817 817 817 817 817 818 818
777 771 767 766 768 770 770 772 773 772 774 774 774 773 768 765 765 760 759 766 765 756 751 751 754 759 762 765 769 771 775 777 777 779 782 784 786 786 785 785 784 781 780 781 779 777 783 787 786 788 793 796 799 802 802 804 806 807 809 809 810 812 813 815 817 817 818 818 818 818 817 818 818 817 818 817 817 817 817 817 817 817 817 817 817 818 817
787 777 773 773 769 768 773 778 780 780 781 781 780 778 774 773 774 770 768 776 776 764 756 757 761 763 764 768 771 773 776 779 780 781 782 782 783 783 783 783 783 780 779 779 775 772 777 783 785 788 790 794 798 800 801 804 805 807 809 809 811 813 814 816 817 817 818 818 818 818 818 818 818 818 818 817 817 817 817 817 817 816 817 817 817 817 817
793 782 779 775 771 782 791 785 781 783 784 781 780 778 775 773 774 777 783 786 780 767 759 762 767 768 768 770 772 774 777 779 780 778 777 779 780 779 779 778 777 775 774 772 768 768 772 777 781 785 788 791 796 798 800 803 804 806 808 809 812 813 814 816 816 817 818 818 818 819 818 818 818 817 818 817 817 817 816 816 817 816 817 817 816 816 816
797 788 777 777 791 808 802 780 773 779 779 779 785 786 781 775 772 776 780 777 770 767 766 768 771 770 769 770 770 769 771 774 777 776 775 776 776 775 774 773 771 769 768 765 762 765 771 774 778 784 787 789 794 796 799 802 803 806 808 810 812 813 814 816 816 817 818 818 818 819 818 818 818 817 818 817 817 817 816 816 817 817 817 816 816 816 816
794 786 783 801 817 809 785 769 770 775 772 773 781 786 783 778 776 776 776 774 770 768 768 768 769 768 766 766 766 766 766 768 771 773 774 773 772 771 771 769 767 766 768 768 762 763 771 775 777 783 787 789 792 796 798 801 803 805 808 810 811 813 814 815 816 817 818 818 818 818 818 818 818 817 818 817 817 817 817 817 817 816 816 816 816 817 817
793 793 801 816 813 789 773 771 771 772 774 772 779 792 792 784 780 779 779 779 775 770 770 769 768 767 765 766 767 767 767 767 766 769 771 769 768 767 766 767 767 767 775 780 772 767 771 775 777 782 786 789 792 795 797 800 802 805 808 810 811 812 814 815 816 817 817 818 818 818 818 818 818 818 817 817 817 817 817 817 817 817 817 817 817 818 818
794 801 806 803 795 789 787 784 776 775 779 775 779 798 802 788 781 782 780 780 778 775 775 774 770 768 770 774 774 768 767 768 765 764 764 763 764 765 766 770 771 770 777 782 780 776 776 777 779 782 786 789 792 795 797 800 802 805 807 809 811 812 813 814 815 816 817 817 818 818 818 818 818 818 817 817 818 818 818 818 818 818 818 818 818 818 817
792 800 808 806 809 810 800 788 777 770 773 770 769 790 805 793 782 783 783 783 784 780 778 777 774 773 778 783 778 767 765 766 764 764 763 762 765 767 768 770 772 773 776 779 781 781 780 780 782 783 786 790 792 795 798 799 802 805 807 808 810 811 813 814 815 816 817 817 818 818 818 818 818 818 817 818 818 818 818 818 818 818 818 818 818 818 817
791 799 811 814 816 811 795 784 774 765 768 765 762 790 816 801 782 783 784 784 786 784 782 781 778 780 786 785 774 764 762 763 763 764 763 763 766 768 768 768 770 772 776 779 781 782 782 783 783 785 788 791 793 796 798 800 802 804 806 808 809 811 813 814 815 816 817 817 818 818 818 818 818 819 818 818 819 819 819 819 818 818 818 818 818 817 817
791 796 806 808 805 799 786 778 772 764 760 756 769 808 825 801 784 786 785 783 785 783 781 781 780 782 785 780 769 762 761 762 763 764 763 762 765 767 768 769 770 772 775 778 780 781 782 783 784 786 789 792 795 798 799 801 803 804 805 808 809 811 812 813 815 816 816 817 818 818 819 819 819 819 819 819 819 819 819 819 819 818 818 818 818 817 817
790 794 802 805 800 788 777 773 769 759 755 766 795 818 811 791 787 788 784 784 785 781 780 781 780 778 775 770 765 761 760 763 764 764 763 763 764 766 768 769 770 772 775 776 778 780 781 782 784 787 789 792 796 799 801 802 803 805 807 808 809 811 812 813 815 816 816 818 818 818 819 819 819 820 820 820 820 819 819 819 819 819 819 818 818 817 817
791 791 797 807 803 783 769 769 764 756 767 794 808 801 788 785 788 786 783 785 784 781 781 781 778 774 767 763 762 760 761 764 766 765 765 764 765 766 768 770 771 773 775 777 778 779 781 783 785 787 790 794 797 799 801 803 805 806 808 809 809 811 812 814 815 816 817 818 818 819 820 820 820 821 821 821 820 820 820 820 819 819 819 818 818 817 817
791 795 802 813 809 784 765 768 770 769 782 797 794 784 783 786 785 784 786 785 782 782 782 779 777 773 766 763 762 760 761 763 764 765 765 763 764 766 767 770 771 772 774 776 777 779 780 782 785 788 791 794 797 800 802 804 806 808 808 809 810 811 813 814 815 816 817 818 819 820 820 821 821 821 821 821 821 821 821 820 820 820 819 818 818 818 817
791 803 806 803 795 777 765 771 779 780 780 780 778 781 785 784 781 783 785 782 779 779 778 775 774 770 766 764 762 760 761 761 761 763 762 761 763 764 765 767 769 771 773 775 776 779 780 782 785 788 792 795 798 800 803 804 807 808 808 810 811 812 813 815 816 817 818 819 820 820 821 822 822 822 822 822 821 821 821 821 820 820 820 819 818 818 817
785 793 793 784 778 774 770 771 776 777 774 772 774 778 781 780 779 778 778 778 776 773 772 771 770 769 768 765 761 759 759 758 758 760 760 759 761 762 764 767 769 771 773 774 776 779 781 783 787 789 792 796 798 800 803 805 806 808 809 810 811 812 814 815 816 818 819 820 821 821 822 823 822 822 822 822 822 822 822 821 821 820 820 820 819 818 818
780 782 783 780 779 779 776 774 774 775 775 774 774 775 778 778 775 773 774 775 772 770 770 770 770 770 770 766 763 761 759 758 758 759 760 761 761 762 764 767 769 772 773 774 777 780 782 785 788 790 793 796 798 801 803 804 806 808 809 811 812 813 815 816 817 819 819 820 822 822 823 823 823 823 823 823 823 823 822 822 822 821 820 820 820 819 818
785 791 790 785 783 783 780 778 777 775 775 775 775 776 777 775 772 771 772 771 771 771 771 771 771 771 769 768 766 763 761 761 760 760 762 764 764 764 766 766 768 770 772 774 776 779 783 786 788 791 794 795 798 801 802 804 806 807 809 811 812 813 815 817 818 819 820 821 822 823 823 823 824 824 824 824 823 823 823 823 822 822 821 821 820 820 819
788 794 792 786 784 783 780 780 781 779 778 777 775 775 775 773 772 771 769 769 771 771 771 772 772 771 769 769 768 765 763 764 762 762 764 766 766 769 773 775 774 772 771 773 776 778 782 786 788 790 793 795 797 800 802 804 806 807 809 811 812 814 816 817 819 820 821 821 822 823 824 824 825 825 825 825 824 824 824 824 823 822 822 822 821 820 819
792 791 788 787 787 785 783 782 782 780 779 778 776 775 774 773 772 771 769 769 770 770 771 771 771 771 770 769 769 768 766 764 763 764 764 765 767 770 774 780 784 781 775 773 776 779 782 785 788 790 792 795 797 799 802 804 805 807 809 811 813 815 816 817 819 820 821 821 822 823 824 825 825 826 826 826 825 825 825 824 824 823 823 822 821 820 819
799 795 790 788 790 791 789 786 782 780 778 777 777 777 776 775 774 773 772 771 769 769 770 770 770 771 771 769 770 770 768 765 765 764 764 766 768 770 772 775 782 788 784 777 776 780 783 784 788 790 792 795 798 799 802 804 805 807 809 811 813 815 816 817 818 819 820 821 822 823 825 825 826 826 826 826 826 826 825 825 824 824 823 822 821 820 819
797 793 788 786 788 790 788 784 781 780 777 777 779 779 779 778 776 774 774 774 772 770 769 768 770 771 770 769 770 771 770 769 767 766 765 765 766 769 771 770 774 786 791 784 778 781 784 785 788 790 792 795 798 800 801 803 805 807 809 810 813 814 815 816 817 818 820 821 823 824 825 826 826 826 826 827 827 826 826 826 825 825 824 823 822 820 819
789 787 785 784 785 787 785 781 780 779 777 778 779 779 778 777 775 774 774 774 773 771 768 767 768 769 769 768 769 769 770 770 769 768 768 766 766 768 770 768 769 780 791 791 784 781 785 787 788 790 793 795 797 799 801 803 805 806 808 810 812 813 814 815 816 818 820 822 823 825 825 826 826 826 826 826 827 826 826 826 825 825 825 824 822 821 820
784 784 781 780 782 782 781 778 778 777 776 777 778 778 777 776 775 774 773 772 771 770 768 767 767 767 767 767 767 768 769 769 770 771 770 769 769 768 768 768 770 776 788 796 791 784 785 788 789 790 794 796 797 799 801 803 804 806 807 809 810 812 813 815 816 818 820 821 823 824 825 825 826 826 826 826 826 826 826 826 826 826 825 824 823 822 821
780 780 779 780 780 780 779 780 779 778 776 776 776 776 776 775 774 773 772 771 770 768 767 766 767 767 767 766 766 768 769 770 771 772 772 772 771 768 766 768 771 775 784 795 797 791 787 788 790 792 794 796 798 800 802 803 805 806 807 808 810 811 812 814 816 818 819 821 823 824 824 825 826 826 826 826 826 826 826 826 826 826 825 824 823 822 821
777 777 779 783 784 782 781 782 781 779 776 775 775 775 774 774 774 773 771 770 769 767 766 766 766 766 766 766 765 766 768 770 771 772 775 776 773 767 765 768 773 778 783 790 797 797 793 790 791 794 795 798 800 801 803 805 806 807 808 809 810 811 812 813 815 817 819 820 822 823 824 825 826 826 826 826 826 826 826 825 826 826 826 825 824 823 822
776 776 777 782 785 784 781 779 778 777 776 775 774 773 773 772 772 771 771 769 768 766 766 766 766 766 766 766 766 765 766 768 770 772 775 777 773 767 764 767 773 778 781 784 790 796 796 794 794 795 797 800 802 803 805 807 808 809 810 811 811 812 813 814 815 817 818 820 822 823 824 825 826 826 826 826 826 826 826 826 826 826 826 825 824 823 822
777 776 776 778 779 779 778 777 777 776 775 774 773 772 771 772 772 771 771 769 767 766 766 766 766 766 766 766 767 766 766 767 768 769 770 773 773 769 767 769 773 777 780 781 784 789 795 796 795 797 800 802 804 806 808 809 810 811 812 812 813 813 813 814 815 816 818 820 822 823 824 825 826 826 826 827 827 826 826 827 827 827 826 825 825 824 823
776 775 776 776 776 777 778 778 777 777 776 774 774 772 771 771 772 771 770 769 768 766 765 765 764 764 763 764 765 765 766 766 767 768 769 770 772 773 772 772 775 779 782 782 782 786 792 796 797 799 801 803 806 808 809 810 812 813 814 814 815 814 814 815 815 816 818 820 821 823 824 825 826 826 826 827 827 826 826 827 827 827 827 826 825 824 823
776 775 776 777 776 777 778 778 778 777 775 774 774 773 771 771 771 771 769 768 767 765 763 763 763 762 762 762 763 764 764 763 764 768 769 771 773 776 775 775 777 780 783 783 783 785 791 795 798 800 802 804 807 809 810 811 813 814 815 816 815 815 815 815 816 817 819 820 821 823 824 825 826 826 826 827 827 827 827 827 828 828 827 826 826 825 823
776 777 777 778 778 778 778 778 778 777 775 774 773 772 771 770 770 769 768 767 766 764 763 762 762 761 761 761 761 761 761 761 761 763 766 768 771 775 777 777 779 781 783 784 784 786 791 795 798 800 802 804 807 809 811 813 814 815 816 816 816 816 816 816 817 818 819 820 821 822 823 825 826 826 826 827 827 827 827 827 828 828 827 826 826 825 824
777 779 779 779 779 779 778 777 776 775 774 772 771 769 768 767 766 766 766 764 763 762 761 760 760 760 760 760 759 759 759 759 760 761 762 763 766 770 775 778 780 783 785 785 786 788 792 795 797 800 803 805 808 811 812 814 814 815 816 816 816 816 816 816 817 818 819 820 821 822 823 825 825 826 826 827 827 827 827 828 828 828 827 827 827 826 824
775 777 777 776 776 777 776 775 774 773 771 769 767 765 764 764 763 763 763 762 761 760 759 757 757 758 758 758 757 757 757 758 758 759 760 760 762 767 772 777 780 784 787 788 788 790 793 795 797 800 804 807 810 812 813 814 815 816 816 816 817 817 817 816 817 818 818 819 820 821 823 824 825 826 826 827 827 827 827 828 828 828 828 827 827 826 825
771 772 772 772 772 772 772 771 770 769 768 767 765 763 762 761 760 760 760 759 759 758 757 755 755 755 756 756 756 756 756 755 755 757 758 758 761 767 773 776 780 785 788 790 790 790 793 795 798 801 806 809 811 813 814 815 815 816 816 817 817 817 817 817 817 817 818 818 819 821 822 823 825 826 826 826 827 827 827 828 829 829 828 828 827 826 826
770 770 770 770 770 769 768 767 767 766 765 764 762 761 760 759 758 757 757 756 756 756 755 755 754 754 754 754 754 754 755 755 756 759 758 756 759 766 772 775 779 783 787 788 789 790 792 795 798 802 807 810 812 813 814 815 815 815 816 816 817 817 818 818 817 817 817 817 818 820 821 823 824 825 826 826 827 827 827 829 829 829 829 828 827 827 826
769 769 769 768 768 767 766 765 764 763 762 761 760 759 758 757 756 756 754 754 753 754 754 754 753 752 751 752 752 753 754 755 757 759 758 755 757 763 768 770 774 779 782 784 786 789 792 795 799 803 807 810 811 813 814 815 815 815 815 816 816 817 817 817 817 817 817 817 818 819 821 822 824 825 825 826 827 827 828 829 829 829 829 829 828 827 827
768 768 768 767 766 765 764 762 762 761 760 759 758 757 756 756 754 754 752 751 751 751 751 752 752 751 751 752 753 753 754 755 756 758 758 756 756 759 762 765 769 772 774 779 783 787 791 795 799 804 807 809 811 812 813 814 814 815 815 815 816 816 816 816 817 817 817 817 818 819 820 821 823 824 825 826 827 827 828 829 829 830 830 829 828 828 828
767 766 766 764 763 763 762 761 760 759 758 757 756 755 754 753 752 751 750 749 749 748 749 750 750 751 752 753 753 753 753 753 754 755 756 756 755 756 759 763 765 766 770 776 782 786 790 795 799 802 805 807 809 811 812 813 814 814 814 815 815 815 816 816 817 817 817 817 817 818 819 821 822 824 825 826 827 828 828 829 829 830 830 829 829 829 828
766 765 764 763 762 761 760 759 758 757 756 756 754 752 751 750 749 748 747 746 745 745 745 747 749 750 750 750 751 752 752 752 752 753 755 756 758 758 759 763 766 768 771 776 781 785 789 794 798 801 803 805 807 809 811 812 812 813 813 814 814 815 816 816 816 817 817 817 817 817 818 820 822 823 825 826 827 828 828 829 830 830 830 830 830 830 829
764 763 763 762 761 760 759 758 757 756 754 753 752 750 748 747 746 745 744 744 743 743 743 744 746 748 748 748 749 750 751 751 752 753 754 756 757 758 759 763 767 769 773 777 781 785 789 793 796 798 801 803 805 808 809 810 811 812 812 812 813 814 815 815 816 816 816 816 816 817 818 819 821 823 824 826 827 828 828 829 830 830 831 831 831 830 830
763 763 762 761 761 760 759 758 757 755 753 751 749 748 746 744 743 742 742 742 743 743 742 743 744 746 748 749 750 751 751 751 753 754 754 753 752 752 755 760 765 769 773 777 781 784 788 791 794 796 799 801 804 806 808 809 810 811 810 810 811 812 813 814 814 815 815 815 816 817 818 819 821 822 824 826 827 827 828 829 830 830 831 831 831 831 831
763 763 761 761 761 760 758 757 756 754 752 749 747 746 744 742 741 740 740 740 741 740 740 741 743 744 746 748 749 750 751 752 753 755 756 755 752 749 751 757 763 768 773 777 780 783 786 789 792 795 798 800 803 804 806 807 809 809 809 809 809 811 812 813 813 814 814 814 815 816 818 819 821 822 824 825 826 828 829 829 830 831 831 832 832 832 832
763 762 761 760 760 758 757 756 754 752 750 747 745 744 742 740 740 739 738 738 738 737 737 739 740 740 742 744 745 747 747 748 751 755 757 757 755 753 754 757 763 769 774 777 780 782 785 788 791 794 797 799 801 803 805 806 807 807 807 807 809 810 811 812 812 813 813 814 814 816 817 819 821 822 823 825 826 828 829 829 830 831 832 832 833 833 833
761 761 760 759 758 757 756 754 752 750 747 745 744 743 742 741 740 739 737 737 736 735 734 735 736 737 739 741 742 742 743 743 746 750 752 753 754 755 756 759 764 769 773 777 780 781 784 787 791 794 796 797 799 801 803 805 806 806 806 807 808 809 810 811 812 813 813 814 815 816 818 819 821 822 823 825 826 827 828 829 830 831 832 833 833 833 833
760 759 758 757 756 755 754 753 751 748 747 746 744 743 741 742 741 739 737 736 735 734 733 734 735 736 738 739 740 742 743 745 747 749 749 748 749 752 756 760 764 768 772 777 779 781 784 788 790 793 795 796 798 800 802 804 804 805 805 806 808 809 810 811 812 812 813 814 815 816 818 819 821 822 823 825 826 827 828 829 830 831 832 833 833 834 834
759 758 757 756 754 754 753 753 751 749 748 747 744 742 741 742 741 738 735 733 734 734 734 733 734 736 738 739 740 741 742 745 748 750 749 749 750 753 757 760 763 767 771 775 778 781 784 787 789 791 793 795 797 799 801 802 803 804 804 806 807 808 809 810 811 812 813 814 815 817 818 820 821 822 823 825 826 827 828 829 830 831 832 833 833 834 834
758 757 755 754 753 753 753 753 751 749 748 747 744 741 741 741 740 737 734 733 734 735 735 733 734 736 739 740 741 741 741 742 744 747 749 751 753 756 759 761 763 766 770 774 777 780 784 786 788 790 792 794 796 798 799 800 801 802 803 805 806 807 808 809 810 811 813 814 815 817 818 820 821 822 823 824 826 827 828 829 830 831 832 833 833 834 834
757 756 755 753 752 752 753 752 751 749 747 745 743 741 740 739 738 736 734 732 733 735 735 733 733 735 738 740 742 744 744 744 745 747 749 751 754 757 761 763 765 766 769 773 776 780 782 784 786 789 791 793 795 797 798 798 799 800 802 804 805 806 807 808 809 810 812 813 815 816 818 819 821 822 823 824 826 827 827 828 830 831 831 832 833 834 835
758 756 755 754 753 752 753 752 750 747 746 745 744 742 740 738 737 736 734 733 733 734 733 732 732 734 737 740 742 743 745 747 749 751 752 753 756 759 762 764 765 766 769 772 776 779 781 783 785 788 789 792 794 796 796 797 798 799 801 803 804 805 806 808 809 810 812 813 814 816 817 819 820 822 823 824 825 826 827 828 829 830 831 832 833 834 835
759 757 755 754 753 752 752 752 750 746 745 745 745 744 741 738 736 735 734 734 735 734 734 735 736 737 739 741 743 743 745 748 751 752 753 754 757 759 762 764 765 767 769 772 775 777 779 781 784 786 788 790 793 794 795 796 797 799 800 802 803 804 805 807 808 809 811 812 814 816 817 818 820 822 823 824 825 826 827 828 829 830 831 832 833 834 834
760 758 756 754 753 752 752 751 749 746 744 745 745 745 743 741 738 735 733 734 736 736 736 737 737 737 739 743 745 746 746 748 750 750 752 754 757 759 761 763 764 766 769 771 774 776 778 781 783 785 788 789 791 793 794 795 796 798 799 800 802 803 804 806 807 809 810 812 813 815 816 818 820 822 823 823 824 825 826 827 828 830 831 832 833 833 834